Location: Arrakis Observatory
(44.1122°N, 95.7153°W)
Time: 12:12:41
(UTC-06:00)

Amateur Radio Satellites - All Passes

Search period start: 20 January 2017 11:42
Search period end: 21 January 2017 11:42
Location: Arrakis Observatory, 44.1122°N, 95.7153°W

Satellite Date Start Highest point End Downlink Frequencies (MHz)
Time Altitude Azimuth
Oscar 19 20 Jan 11:43:14 11:47:01 21° 61° (ENE) 11:50:48 437.125/150
DELFI C3 20 Jan 11:45:18 11:46:12 11° 299° (WNW) 11:47:06 145.870
CUBEBUG 1 20 Jan 11:47:27 11:51:28 36° 97° (E) 11:55:27 437.445
DUCHIFAT 1 20 Jan 11:49:49 11:53:48 43° 261° (W) 11:57:48 145.980
PCSat 20 Jan 11:51:20 11:53:54 14° 257° (WSW) 11:56:27 145.827
NANOSAT C BR1 20 Jan 11:55:31 11:59:21 34° 263° (W) 12:03:11 145.865
Gurwin Techsat 1B 20 Jan 11:57:19 12:00:25 16° 58° (ENE) 12:03:32 435.225
AISAT 20 Jan 12:03:34 12:07:36 35° 97° (E) 12:11:36 437.250
Cosmos 2491 20 Jan 12:04:29 12:11:43 27° 64° (ENE) 12:18:54 435.465 / 435.565
AO-7 20 Jan 12:14:01 12:16:48 12° 38° (NE) 12:19:34 29.400- 29.500
50 SAT 20 Jan 12:15:24 12:18:37 31° 97° (E) 12:21:48 437.505
BUGSAT 1 20 Jan 12:24:49 12:28:45 47° 260° (W) 12:32:40 437.445
ESTCUBE 1 20 Jan 12:25:09 12:29:36 54° 288° (WNW) 12:33:59 437.505/2401.250
CUSAT 1 20 Jan 12:36:24 12:41:54 20° 58° (ENE) 12:47:15 437.405
VELOX 1 20 Jan 12:36:43 12:41:08 75° 103° (ESE) 12:45:31 145.980
TISAT 1 20 Jan 12:59:52 13:02:14 15° 91° (E) 13:04:36 437.305
SPROUT 20 Jan 13:06:02 13:10:17 68° 285° (WNW) 13:14:30 437.525
UKube-1 20 Jan 13:08:20 13:12:35 57° 101° (E) 13:16:49 .
DX 1 20 Jan 13:09:04 13:13:26 80° 104° (ESE) 13:17:45 434.975-435.025
Oscar 19 20 Jan 13:20:47 13:25:54 58° 259° (W) 13:31:03 437.125/150
CUBEBUG 1 20 Jan 13:24:10 13:27:32 22° 295° (WNW) 13:30:53 437.445
DANDE 20 Jan 13:25:19 13:30:12 18° 60° (ENE) 13:35:21 436.750
AO-85 20 Jan 13:29:42 13:33:38 27° 115° (ESE) 13:37:21 145.980
Cosmos 2504 20 Jan 13:32:04 13:37:15 18° 78° (ENE) 13:42:15 435.465 / 435.565
AIST 1 20 Jan 13:32:10 13:35:52 27° 89° (E) 13:39:34
Gurwin Techsat 1B 20 Jan 13:34:23 13:39:41 80° 256° (WSW) 13:45:02 435.225
AISAT 20 Jan 13:40:22 13:43:53 24° 294° (WNW) 13:47:23 437.250
50 SAT 20 Jan 13:49:11 13:51:36 17° 294° (WNW) 13:54:01 437.505
AO-7 20 Jan 13:59:39 14:07:26 45° 60° (ENE) 14:15:15 29.400- 29.500
Cosmos 2491 20 Jan 14:00:39 14:09:23 72° 266° (W) 14:18:07 435.465 / 435.565
ITAMSAT 1 20 Jan 14:03:51 14:08:41 42° 68° (ENE) 14:13:33 435.822/435.867
YUBILEINY 20 Jan 14:08:04 14:16:34 57° 90° (E) 14:25:09 435.215
VELOX 1 20 Jan 14:15:06 14:16:58 13° 300° (WNW) 14:18:51 145.980
CUSAT 1 20 Jan 14:17:03 14:25:06 80° 79° (ENE) 14:32:35 437.405
TISAT 1 20 Jan 14:34:07 14:38:10 51° 288° (WNW) 14:42:12 437.305
SO-50 20 Jan 14:37:17 14:38:32 11° 28° (NNE) 14:39:47 436.795
ITUPSAT 1 20 Jan 14:40:01 14:44:25 34° 97° (E) 14:48:47 437.325
UKube-1 20 Jan 14:45:39 14:48:10 15° 298° (WNW) 14:50:42 .
DX 1 20 Jan 14:47:27 14:48:58 12° 301° (WNW) 14:50:29 434.975-435.025
DANDE 20 Jan 15:06:19 15:14:03 72° 78° (ENE) 15:22:25 436.750
AO-85 20 Jan 15:09:33 15:13:55 40° 311° (NW) 15:18:00 145.980
AIST 1 20 Jan 15:09:41 15:13:24 27° 287° (WNW) 15:17:08
MOZHAYETS 4 20 Jan 15:10:08 15:13:50 23° 93° (E) 15:17:31
BEESAT 20 Jan 15:14:23 15:19:12 77° 103° (ESE) 15:23:59 436.000
SWISSCUBE 20 Jan 15:16:01 15:20:52 88° 99° (E) 15:25:40 437.505
BRITE-PL 20 Jan 15:17:44 15:22:03 23° 63° (ENE) 15:26:18 437.365/2234.400
Gurwin Techsat 1B 20 Jan 15:20:04 15:20:28 10° 274° (W) 15:20:52 435.225
Cosmos 2504 20 Jan 15:20:48 15:29:30 85° 96° (E) 15:37:41 435.465 / 435.565
GOMX 1 20 Jan 15:25:14 15:26:11 10° 57° (ENE) 15:27:07 467.674
O/OREOS (USA 219) 20 Jan 15:26:18 15:30:09 27° 56° (ENE) 15:34:00 437.305
ITAMSAT 1 20 Jan 15:44:02 15:48:17 26° 266° (W) 15:52:35 435.822/435.867
KKS-1 20 Jan 15:49:53 15:52:54 18° 92° (E) 15:55:54 437.445
AO-7 20 Jan 15:52:14 16:00:10 46° 260° (W) 16:08:10 29.400- 29.500
CUBESAT XI-V 20 Jan 15:57:55 15:59:18 11° 87° (E) 16:00:40 437.345
HORYU 2 20 Jan 15:59:13 16:02:29 21° 64° (ENE) 16:05:46 437.375
CUSAT 1 20 Jan 16:00:14 16:06:09 24° 278° (W) 16:11:49 437.405
Cosmos 2491 20 Jan 16:00:29 16:04:32 14° 287° (WNW) 16:08:37 435.465 / 435.565
Cubesat XI-IV 20 Jan 16:01:50 16:03:07 11° 54° (NE) 16:04:25 437.490
YUBILEINY 20 Jan 16:05:54 16:13:46 35° 292° (WNW) 16:21:43 435.215
NOAA 15 20 Jan 16:09:03 16:11:36 14° 56° (ENE) 16:14:11 137.62
SO-50 20 Jan 16:15:45 16:20:09 47° 50° (NE) 16:24:27 436.795
ITUPSAT 1 20 Jan 16:18:02 16:22:08 29° 294° (WNW) 16:26:13 437.325
BEESAT 3 20 Jan 16:20:25 16:24:06 42° 118° (ESE) 16:27:51 437.485
M-CUBED/EXP-1 PRIME 20 Jan 16:35:00 16:38:16 48° 105° (ESE) 16:41:26 437.505
LilacSat-2 20 Jan 16:41:57 16:44:24 17° 65° (ENE) 16:46:52 437.200
STARS 20 Jan 16:42:12 16:46:00 28° 96° (E) 16:49:47 437.465
MOZHAYETS 4 20 Jan 16:46:47 16:51:07 39° 290° (WNW) 16:55:25
DANDE 20 Jan 16:49:57 16:56:15 28° 274° (W) 17:02:57 436.750
BEESAT 20 Jan 16:53:51 16:56:21 14° 301° (WNW) 16:58:52 436.000
BRITE-PL 20 Jan 16:54:26 17:00:03 61° 260° (W) 17:05:38 437.365/2234.400
CUTE-I 20 Jan 16:54:33 16:59:08 31° 65° (ENE) 17:03:44 437.470
SWISSCUBE 20 Jan 16:55:55 16:57:56 13° 302° (WNW) 16:59:57 437.505
GOMX 1 20 Jan 16:58:03 17:03:24 69° 74° (ENE) 17:08:32 467.674
BEESAT 2 20 Jan 17:05:15 17:09:07 56° 121° (ESE) 17:13:03 435.950
O/OREOS (USA 219) 20 Jan 17:05:32 17:09:35 34° 255° (WSW) 17:13:39 437.305
AUBIESAT-1 20 Jan 17:11:31 17:14:52 67° 291° (WNW) 17:18:08 437.475
Cosmos 2504 20 Jan 17:17:32 17:23:50 22° 296° (WNW) 17:29:55 435.465 / 435.565
HO-68 20 Jan 17:22:16 17:27:10 20° 53° (NE) 17:32:03 435.675
KKS-1 20 Jan 17:25:28 17:29:43 46° 289° (WNW) 17:33:56 437.445
CINEMA 3 20 Jan 17:30:09 17:32:16 13° 62° (ENE) 17:34:22 145.822/145.860
CUBESAT XI-V 20 Jan 17:32:33 17:37:16 81° 286° (WNW) 17:41:56 437.345
HORYU 2 20 Jan 17:34:35 17:38:45 42° 261° (W) 17:42:58 437.375
DOVE 4 20 Jan 17:36:48 17:41:45 67° 74° (ENE) 17:46:26 437.250
Cubesat XI-IV 20 Jan 17:36:57 17:42:13 70° 73° (ENE) 17:47:31 437.490
CANX-2 20 Jan 17:41:13 17:42:33 11° 60° (ENE) 17:43:53 2200.000
NOAA 18 20 Jan 17:42:39 17:47:53 47° 69° (ENE) 17:53:08 137.9125
NOAA 15 20 Jan 17:45:17 17:50:35 87° 75° (ENE) 17:55:57 137.62
SO-50 20 Jan 17:56:51 18:00:18 22° 248° (WSW) 18:03:43 436.795
BEESAT 3 20 Jan 17:58:48 18:01:54 22° 317° (NW) 18:05:03 437.485
M-CUBED/EXP-1 PRIME 20 Jan 18:11:12 18:12:21 11° 304° (WNW) 18:13:29 437.505
LilacSat-2 20 Jan 18:14:52 18:18:24 38° 262° (W) 18:21:58 437.200
STARS 20 Jan 18:18:33 18:22:18 29° 293° (WNW) 18:26:02 437.465
CUBEBUG 2 20 Jan 18:24:22 18:25:43 11° 61° (ENE) 18:27:04 437.445
CUTE-I 20 Jan 18:34:10 18:39:03 38° 262° (W) 18:44:00 437.470
GOMX 1 20 Jan 18:38:31 18:41:51 17° 270° (W) 18:45:09 467.674
BEESAT 2 20 Jan 18:44:22 18:47:14 19° 319° (NW) 18:50:09 435.950
CUTE 1.7 + AOD 2 20 Jan 18:44:28 18:48:29 42° 71° (ENE) 18:52:33 437.475
UWE-3 20 Jan 18:51:22 18:53:34 14° 62° (ENE) 18:55:46 435.000/436.395/437.385
GONETS M04 20 Jan 18:57:05 19:04:08 29° 81° (E) 19:11:12
CINEMA 3 20 Jan 19:04:34 19:08:57 65° 259° (W) 19:13:11 145.822/145.860
AIST 2 20 Jan 19:05:41 19:08:54 22° 113° (ESE) 19:12:10 435.215
HO-68 20 Jan 19:06:43 19:13:55 88° 73° (ENE) 19:21:11 435.675
ZACube-1 20 Jan 19:09:43 19:11:46 14° 62° (ENE) 19:13:50 437.345
CUBESAT XI-V 20 Jan 19:12:59 19:13:49 10° 303° (WNW) 19:14:40 437.345
CANX-2 20 Jan 19:13:30 19:17:44 80° 257° (WSW) 19:22:03 2200.000
DOVE 4 20 Jan 19:17:02 19:19:48 15° 270° (W) 19:22:29 437.250
Cubesat XI-IV 20 Jan 19:19:34 19:22:48 16° 270° (W) 19:26:02 437.490
STRAND 1 20 Jan 19:22:41 19:27:33 42° 98° (E) 19:32:25 437.568
SEEDS 20 Jan 19:24:04 19:28:16 78° 76° (ENE) 19:32:32 437.485
NOAA 18 20 Jan 19:24:15 19:28:45 26° 266° (W) 19:33:16 137.9125
NOAA 15 20 Jan 19:28:52 19:31:03 12° 272° (W) 19:33:15 137.62
COMPASS 1 20 Jan 19:29:04 19:33:10 58° 74° (ENE) 19:37:20 437.405
Cosmos 2499 20 Jan 19:33:35 19:41:47 58° 92° (E) 19:49:23 435.465 / 435.565
AAUSAT CUBESAT 2 20 Jan 19:40:05 19:44:11 59° 74° (ENE) 19:48:20 437.432
Oscar 11 20 Jan 19:43:47 19:47:24 27° 67° (ENE) 19:51:03 145.826/435.025
CUBEBUG 2 20 Jan 19:57:37 20:01:46 73° 257° (WSW) 20:05:55 437.445
FUNcube-1 20 Jan 20:20:08 20:24:13 68° 75° (ENE) 20:28:23 145.935
CUTE 1.7 + AOD 2 20 Jan 20:21:35 20:24:31 18° 268° (W) 20:27:29 437.475
UWE-3 20 Jan 20:25:30 20:29:34 56° 260° (W) 20:33:40 435.000/436.395/437.385
AIST 2 20 Jan 20:43:14 20:47:08 40° 311° (NW) 20:51:07 435.215
ZACube-1 20 Jan 20:43:29 20:47:33 60° 259° (W) 20:51:42 437.345
GONETS M04 20 Jan 20:51:36 21:00:14 66° 282° (WNW) 21:08:59
HUMSAT D 20 Jan 20:52:07 20:55:35 27° 68° (ENE) 20:59:05 437.325/437.525
DELFI C3 20 Jan 20:54:34 20:58:27 50° 73° (ENE) 21:02:22 145.870
HO-68 20 Jan 20:57:54 21:02:31 18° 271° (W) 21:07:10 435.675
STRAND 1 20 Jan 21:02:16 21:06:31 27° 296° (WNW) 21:10:47 437.568
PRISM 20 Jan 21:02:53 21:06:08 22° 94° (E) 21:09:22 437.425
COMPASS 1 20 Jan 21:07:06 21:09:06 13° 271° (W) 21:11:05 437.405
AAUSAT CUBESAT 2 20 Jan 21:18:09 21:20:02 13° 271° (W) 21:21:55 437.432
Oscar 11 20 Jan 21:19:39 21:23:26 30° 264° (W) 21:27:16 145.826/435.025
Cosmos 2499 20 Jan 21:28:02 21:35:15 32° 291° (WNW) 21:42:04 435.465 / 435.565
UNISAT 6 20 Jan 21:32:52 21:35:46 17° 92° (E) 21:38:41 437.425
TIGRISAT 20 Jan 21:45:42 21:49:06 21° 94° (E) 21:52:32 435.000
BY70-1 20 Jan 21:47:05 21:49:30 21° 68° (ENE) 21:52:03 436.1900
ESTCUBE 1 20 Jan 21:50:35 21:53:45 19° 63° (ENE) 21:56:55 437.505/2401.250
AO-85 20 Jan 21:59:14 22:02:48 31° 47° (NE) 22:06:18 145.980
FUNcube-1 20 Jan 22:00:06 22:00:58 11° 272° (W) 22:01:49 145.935
ANTELSAT 20 Jan 22:00:36 22:04:35 32° 96° (E) 22:08:37 437.575/2403.000
ISS 20 Jan 22:17:25 22:20:28 37° 141° (SE) 22:23:30 145.825
JAS-2 20 Jan 22:26:05 22:32:18 30° 93° (E) 22:38:53 435.910
HUMSAT D 20 Jan 22:27:38 22:31:07 27° 265° (W) 22:34:41 437.325/437.525
SPROUT 20 Jan 22:27:50 22:29:22 12° 60° (ENE) 22:30:54 437.525
DELFI C3 20 Jan 22:31:28 22:33:33 14° 270° (W) 22:35:39 145.870
PRISM 20 Jan 22:37:48 22:41:29 32° 292° (WNW) 22:45:07 437.425
CUBEBUG 1 20 Jan 22:44:32 22:48:35 37° 70° (ENE) 22:52:38 437.445
50 SAT 20 Jan 22:52:04 22:54:30 18° 66° (ENE) 22:56:57 437.505
GONETS M04 20 Jan 22:54:41 22:59:05 15° 306° (NW) 23:03:32
QB50P1 20 Jan 22:56:43 22:58:22 12° 90° (E) 23:00:01 145.935-145.965
POLYITAN 1 20 Jan 23:00:35 23:02:43 14° 90° (E) 23:04:51 437.675
QB50P2 20 Jan 23:01:36 23:04:02 15° 91° (E) 23:06:29 145.880/145.840
AISAT 20 Jan 23:02:01 23:06:07 38° 69° (ENE) 23:10:13 437.250
UNISAT 6 20 Jan 23:08:27 23:12:44 50° 288° (WNW) 23:17:06 437.425
RS-15 20 Jan 23:11:54 23:23:01 50° 110° (ESE) 23:34:34 29.354- 29.394
BY70-1 20 Jan 23:17:27 23:19:45 19° 266° (W) 23:22:10 436.1900
TIGRISAT 20 Jan 23:21:47 23:25:54 39° 290° (WNW) 23:30:06 435.000
POPSAT HIP 1 20 Jan 23:22:16 23:25:37 22° 94° (E) 23:28:57 437.405
ESTCUBE 1 20 Jan 23:25:47 23:30:11 49° 261° (W) 23:34:37 437.505/2401.250
DUCHIFAT 1 20 Jan 23:32:25 23:35:54 25° 95° (E) 23:39:22 145.980
VELOX 1 20 Jan 23:34:58 23:39:25 79° 74° (ENE) 23:43:52 145.980
ANTELSAT 20 Jan 23:37:28 23:41:11 27° 293° (WNW) 23:44:58 437.575/2403.000
NANOSAT C BR1 20 Jan 23:37:59 23:41:45 31° 96° (E) 23:45:30 145.865
AO-85 20 Jan 23:39:49 23:43:04 25° 245° (WSW) 23:46:18 145.980
BEESAT 2 20 Jan 23:46:13 23:46:52 10° 32° (NNE) 23:47:31 435.950
TISAT 1 20 Jan 23:53:18 23:55:35 15° 62° (ENE) 23:57:53 437.305
ISS 20 Jan 23:53:52 23:56:56 37° 338° (NNW) 00:00:01 145.825
SPROUT 21 Jan 00:00:26 00:04:41 76° 258° (WSW) 00:08:57 437.525
UKube-1 21 Jan 00:03:51 00:08:06 58° 73° (ENE) 00:12:22 .
BUGSAT 1 21 Jan 00:05:26 00:08:26 20° 94° (E) 00:11:27 437.445
DX 1 21 Jan 00:05:35 00:09:57 83° 75° (ENE) 00:14:21 434.975-435.025
JAS-2 21 Jan 00:10:35 00:17:35 61° 289° (WNW) 00:25:10 435.910
YUBILEINY 21 Jan 00:16:35 00:24:10 30° 66° (ENE) 00:31:38 435.215
CUBEBUG 1 21 Jan 00:21:31 00:24:57 22° 266° (W) 00:28:25 437.445
50 SAT 21 Jan 00:24:15 00:27:28 32° 263° (W) 00:30:44 437.505
QB50P1 21 Jan 00:30:21 00:34:33 64° 286° (WNW) 00:38:43 145.935-145.965
POLYITAN 1 21 Jan 00:34:42 00:38:52 57° 287° (WNW) 00:43:00 437.675
BEESAT 3 21 Jan 00:35:45 00:39:36 42° 50° (NE) 00:43:24 437.485
QB50P2 21 Jan 00:36:01 00:40:07 51° 288° (WNW) 00:44:14 145.880/145.840
AISAT 21 Jan 00:39:14 00:42:41 22° 266° (W) 00:46:09 437.250
BEESAT 21 Jan 00:47:19 00:49:39 14° 59° (ENE) 00:52:00 436.000
SWISSCUBE 21 Jan 00:48:30 00:51:16 16° 60° (ENE) 00:54:03 437.505
PCSat 21 Jan 00:48:40 00:53:58 61° 116° (ESE) 00:59:19 145.827
POPSAT HIP 1 21 Jan 00:57:38 01:01:27 33° 291° (WNW) 01:05:15 437.405
DUCHIFAT 1 21 Jan 01:07:54 01:11:34 30° 292° (WNW) 01:15:14 145.980
Cosmos 2491 21 Jan 01:08:42 01:15:43 29° 81° (E) 01:22:44 435.465 / 435.565
Cosmos 2504 21 Jan 01:12:41 01:19:10 31° 68° (ENE) 01:25:25 435.465 / 435.565
NANOSAT C BR1 21 Jan 01:13:56 01:17:21 24° 293° (WNW) 01:20:45 145.865
AIST 1 21 Jan 01:14:12 01:18:30 85° 82° (E) 01:22:45
VELOX 1 21 Jan 01:15:34 01:16:24 10° 272° (W) 01:17:15 145.980
BEESAT 2 21 Jan 01:21:34 01:25:33 54° 52° (NE) 01:29:31 435.950
RS-15 21 Jan 01:23:34 01:35:22 59° 315° (NW) 01:47:37 29.354- 29.394
TISAT 1 21 Jan 01:26:40 01:30:46 57° 259° (W) 01:34:54 437.305
Oscar 19 21 Jan 01:30:48 01:35:46 44° 99° (E) 01:40:39 437.125/150
ISS 21 Jan 01:31:28 01:34:02 21° 359° (N) 01:36:36 145.825
BUGSAT 1 21 Jan 01:40:14 01:43:54 34° 290° (WNW) 01:47:34 437.445
UKube-1 21 Jan 01:42:16 01:44:30 14° 269° (W) 01:46:45 .
ITUPSAT 1 21 Jan 01:47:59 01:52:33 47° 70° (ENE) 01:57:08 437.325
Gurwin Techsat 1B 21 Jan 01:49:16 01:54:09 36° 97° (E) 01:59:01 435.225
M-CUBED/EXP-1 PRIME 21 Jan 01:50:50 01:51:49 11° 56° (NE) 01:52:48 437.505
JAS-2 21 Jan 01:58:06 02:01:24 14° 308° (NW) 02:04:49 435.910
YUBILEINY 21 Jan 02:12:55 02:21:37 65° 268° (W) 02:30:14 435.215
MOZHAYETS 4 21 Jan 02:13:25 02:17:12 26° 66° (ENE) 02:21:01
BEESAT 3 21 Jan 02:14:00 02:16:56 20° 247° (WSW) 02:19:52 437.485
ITAMSAT 1 21 Jan 02:16:52 02:19:08 13° 88° (E) 02:21:24 435.822/435.867
BEESAT 21 Jan 02:22:02 02:26:47 80° 257° (WSW) 02:31:35 436.000
SWISSCUBE 21 Jan 02:23:46 02:28:30 69° 257° (WSW) 02:33:17 437.505
AUBIESAT-1 21 Jan 02:24:51 02:27:47 19° 61° (ENE) 02:30:35 437.475
PCSat 21 Jan 02:33:18 02:37:46 25° 316° (NW) 02:42:16 145.827
KKS-1 21 Jan 02:49:20 02:52:39 21° 64° (ENE) 02:55:58 437.445
BEESAT 2 21 Jan 03:00:29 03:02:55 16° 249° (WSW) 03:05:20 435.950
PHONESAT 2.4 21 Jan 03:01:27 03:03:24 25° 169° (S) 03:05:21 2401.200-2431.200
CUBESAT XI-V 21 Jan 03:02:11 03:04:46 15° 61° (ENE) 03:07:20 437.345
Cosmos 2491 21 Jan 03:03:13 03:11:50 66° 282° (WNW) 03:20:33 435.465 / 435.565
Cosmos 2504 21 Jan 03:05:46 03:12:51 50° 270° (W) 03:19:41 435.465 / 435.565
ISS 21 Jan 03:08:12 03:11:10 32° 19° (NNE) 03:14:09 145.825
Oscar 19 21 Jan 03:10:38 03:14:50 26° 296° (WNW) 03:19:00 437.125/150
CUSAT 1 21 Jan 03:19:27 03:24:37 68° 96° (E) 03:31:21 437.405
M-CUBED/EXP-1 PRIME 21 Jan 03:21:23 03:25:46 90° 65° (ENE) 03:29:51 437.505
AIST 2 21 Jan 03:24:45 03:28:26 27° 45° (NE) 03:32:05 435.215
ITUPSAT 1 21 Jan 03:27:09 03:30:37 20° 267° (W) 03:34:07 437.325
Gurwin Techsat 1B 21 Jan 03:29:20 03:34:01 32° 294° (WNW) 03:38:41 435.225
STARS 21 Jan 03:40:06 03:43:57 31° 68° (ENE) 03:47:49 437.465
RS-15 21 Jan 03:40:53 03:51:15 30° 346° (NNW) 04:01:44 29.354- 29.394
MOZHAYETS 4 21 Jan 03:50:04 03:54:13 34° 264° (W) 03:58:26
AO-7 21 Jan 03:51:29 03:59:44 57° 103° (ESE) 04:07:52 29.400- 29.500
ITAMSAT 1 21 Jan 03:54:00 03:59:14 84° 287° (WNW) 04:04:27 435.822/435.867
AUBIESAT-1 21 Jan 03:57:51 04:01:56 44° 255° (WSW) 04:05:47 437.475
YUBILEINY 21 Jan 04:13:27 04:16:31 12° 289° (WNW) 04:19:35 435.215
DANDE 21 Jan 04:17:16 04:21:08 61° 95° (E) 04:26:22 436.750
KKS-1 21 Jan 04:24:43 04:28:56 42° 261° (W) 04:33:11 437.445
PHONESAT 2.4 21 Jan 04:35:05 04:37:07 28° 186° (S) 04:39:08 2401.200-2431.200
CUBESAT XI-V 21 Jan 04:36:52 04:41:33 72° 258° (WSW) 04:46:17 437.345
ISS 21 Jan 04:44:36 04:47:47 50° 216° (SW) 04:50:55 145.825
BRITE-PL 21 Jan 04:58:41 05:03:19 41° 96° (E) 05:07:35 437.365/2234.400
GOMX 1 21 Jan 05:00:15 05:02:51 15° 89° (E) 05:05:22 467.674
AIST 2 21 Jan 05:03:03 05:06:59 37° 243° (WSW) 05:10:53 435.215
CUSAT 1 21 Jan 05:03:12 05:07:29 21° 301° (WNW) 05:12:31 437.405
GONETS M04 21 Jan 05:04:59 05:09:56 16° 55° (NE) 05:14:51
STRAND 1 21 Jan 05:06:02 05:06:43 10° 55° (NE) 05:07:24 437.568
Cosmos 2491 21 Jan 05:06:18 05:10:41 14° 306° (NW) 05:15:06 435.465 / 435.565
STARS 21 Jan 05:16:38 05:20:18 26° 264° (W) 05:23:59 437.465
HORYU 2 21 Jan 05:23:46 05:27:45 31° 97° (E) 05:31:42 437.375
Cosmos 2499 21 Jan 05:24:13 05:29:10 19° 62° (ENE) 05:34:02 435.465 / 435.565
ITAMSAT 1 21 Jan 05:35:39 05:37:54 13° 304° (NW) 05:40:08 435.822/435.867
DOVE 4 21 Jan 05:35:56 05:37:58 13° 90° (E) 05:39:59 437.250
O/OREOS (USA 219) 21 Jan 05:40:45 05:44:10 22° 102° (ESE) 05:47:36 437.305
AO-7 21 Jan 05:44:43 05:52:09 37° 303° (WNW) 05:59:33 29.400- 29.500
LilacSat-2 21 Jan 05:46:55 05:49:48 20° 93° (E) 05:52:40 437.200
Cubesat XI-IV 21 Jan 05:53:10 05:57:29 24° 93° (E) 06:01:47 437.490
RS-15 21 Jan 05:57:54 06:08:45 33° 21° (NNE) 06:19:26 29.354- 29.394
NOAA 15 21 Jan 05:59:21 06:03:56 29° 95° (E) 06:08:29 137.62
DANDE 21 Jan 06:02:14 06:04:49 15° 304° (WNW) 06:07:48 436.750
NOAA 18 21 Jan 06:04:13 06:07:40 17° 91° (E) 06:11:04 137.9125
PHONESAT 2.4 21 Jan 06:09:41 06:10:41 12° 202° (SSW) 06:11:41 2401.200-2431.200
HO-68 21 Jan 06:35:01 06:38:48 15° 87° (E) 06:42:33 435.675
GOMX 1 21 Jan 06:37:02 06:41:21 49° 288° (WNW) 06:45:25 467.674
BRITE-PL 21 Jan 06:37:39 06:41:31 23° 297° (WNW) 06:45:09 437.365/2234.400
STRAND 1 21 Jan 06:39:54 06:44:57 70° 72° (ENE) 06:50:03 437.568
CUTE-I 21 Jan 06:48:58 06:54:20 77° 103° (ESE) 06:59:41 437.470
CINEMA 3 21 Jan 06:57:44 07:01:10 24° 95° (E) 07:04:39 145.822/145.860
CANX-2 21 Jan 06:58:04 07:00:49 16° 91° (E) 07:03:32 2200.000
GONETS M04 21 Jan 06:59:48 07:08:39 70° 78° (ENE) 07:17:28
HORYU 2 21 Jan 07:00:25 07:04:12 27° 294° (WNW) 07:07:58 437.375
SEEDS 21 Jan 07:08:24 07:10:00 12° 89° (E) 07:11:36 437.485
DOVE 4 21 Jan 07:11:58 07:16:05 53° 287° (WNW) 07:20:05 437.250
Cosmos 2499 21 Jan 07:16:04 07:23:14 79° 265° (W) 07:30:17 435.465 / 435.565
O/OREOS (USA 219) 21 Jan 07:19:07 07:23:18 39° 300° (WNW) 07:27:32 437.305
LilacSat-2 21 Jan 07:20:41 07:24:09 32° 290° (WNW) 07:27:37 437.200
Cubesat XI-IV 21 Jan 07:32:41 07:37:47 47° 291° (WNW) 07:42:52 437.490
NOAA 15 21 Jan 07:38:52 07:43:47 40° 293° (WNW) 07:48:41 137.62
NOAA 18 21 Jan 07:43:24 07:48:50 70° 288° (WNW) 07:54:15 137.9125
CUBEBUG 2 21 Jan 07:47:03 07:50:20 21° 93° (E) 07:53:40 437.445
PCSat 21 Jan 07:52:49 07:55:57 15° 35° (NE) 07:59:04 145.827
PRISM 21 Jan 07:53:42 07:56:50 21° 65° (ENE) 07:59:59 437.425
CUTE 1.7 + AOD 2 21 Jan 08:03:11 08:07:30 70° 101° (ESE) 08:11:46 437.475
FUNcube-1 21 Jan 08:08:06 08:09:55 12° 89° (E) 08:11:45 145.935
SO-50 21 Jan 08:10:55 08:15:38 81° 123° (ESE) 08:20:18 436.795
RS-15 21 Jan 08:11:27 08:23:54 73° 51° (NE) 08:35:51 29.354- 29.394
UWE-3 21 Jan 08:13:25 08:17:03 25° 95° (E) 08:20:44 435.000/436.395/437.385
HO-68 21 Jan 08:20:21 08:27:35 82° 106° (ESE) 08:34:45 435.675
STRAND 1 21 Jan 08:21:44 08:24:38 15° 270° (W) 08:27:32 437.568
ZACube-1 21 Jan 08:30:18 08:33:49 23° 94° (E) 08:37:23 437.345
CUTE-I 21 Jan 08:30:28 08:33:45 17° 301° (WNW) 08:37:02 437.470
CANX-2 21 Jan 08:32:46 08:36:55 48° 288° (WNW) 08:41:03 2200.000
UNISAT 6 21 Jan 08:33:36 08:36:26 18° 64° (ENE) 08:39:15 437.425
CINEMA 3 21 Jan 08:34:39 08:38:20 31° 291° (WNW) 08:42:06 145.822/145.860
SEEDS 21 Jan 08:41:54 08:46:08 65° 285° (WNW) 08:50:20 437.485
JAS-2 21 Jan 08:44:12 08:46:22 12° 51° (NE) 08:48:37 435.910
COMPASS 1 21 Jan 08:45:33 08:49:48 89° 291° (WNW) 08:53:59 437.405
TIGRISAT 21 Jan 08:46:10 08:49:24 22° 66° (ENE) 08:52:40 435.000
AAUSAT CUBESAT 2 21 Jan 08:55:56 09:00:09 89° 263° (W) 09:04:19 437.432
GONETS M04 21 Jan 08:57:42 09:04:41 27° 279° (W) 09:11:41
ANTELSAT 21 Jan 09:01:00 09:04:46 32° 69° (ENE) 09:08:35 437.575/2403.000
Oscar 11 21 Jan 09:04:39 09:08:50 43° 98° (E) 09:12:59 145.826/435.025
Cosmos 2499 21 Jan 09:12:16 09:15:00 13° 285° (WNW) 09:17:44 435.465 / 435.565
CUBEBUG 2 21 Jan 09:23:02 09:27:04 39° 289° (WNW) 09:31:13 437.445
NOAA 18 21 Jan 09:26:49 09:28:31 11° 307° (NW) 09:30:12 137.9125
PRISM 21 Jan 09:28:02 09:31:54 36° 262° (W) 09:35:47 437.425
PCSat 21 Jan 09:34:59 09:40:25 67° 57° (ENE) 09:45:48 145.827
CUTE 1.7 + AOD 2 21 Jan 09:40:51 09:42:46 13° 299° (WNW) 09:44:40 437.475
FUNcube-1 21 Jan 09:42:12 09:46:35 68° 285° (WNW) 09:51:01 145.935
UWE-3 21 Jan 09:49:37 09:53:32 33° 290° (WNW) 09:57:31 435.000/436.395/437.385
QB50P1 21 Jan 09:51:08 09:52:45 12° 60° (ENE) 09:54:22 145.935-145.965
SO-50 21 Jan 09:53:20 09:56:40 19° 323° (NW) 09:59:58 436.795
POLYITAN 1 21 Jan 09:55:08 09:57:10 13° 62° (ENE) 09:59:12 437.675
QB50P2 21 Jan 09:56:06 09:58:24 15° 62° (ENE) 10:00:44 145.880/145.840
DELFI C3 21 Jan 10:04:49 10:08:49 68° 101° (ESE) 10:12:46 145.870
ZACube-1 21 Jan 10:06:10 10:10:10 36° 290° (WNW) 10:14:15 437.345
HUMSAT D 21 Jan 10:08:30 10:12:35 41° 98° (E) 10:16:39 437.325/437.525
UNISAT 6 21 Jan 10:08:42 10:12:48 46° 261° (W) 10:16:56 437.425
HO-68 21 Jan 10:09:13 10:14:30 23° 305° (NW) 10:19:47 435.675
POPSAT HIP 1 21 Jan 10:16:22 10:19:31 21° 65° (ENE) 10:22:41 437.405
TIGRISAT 21 Jan 10:21:59 10:25:53 36° 262° (W) 10:29:50 435.000
RS-15 21 Jan 10:24:49 10:35:30 37° 255° (WSW) 10:45:51 29.354- 29.394
JAS-2 21 Jan 10:24:53 10:30:13 74° 73° (ENE) 10:36:11 435.910
DUCHIFAT 1 21 Jan 10:25:48 10:29:04 23° 66° (ENE) 10:32:21 145.980
NANOSAT C BR1 21 Jan 10:31:30 10:35:05 28° 68° (ENE) 10:38:41 145.865
ANTELSAT 21 Jan 10:38:06 10:41:32 24° 266° (W) 10:44:59 437.575/2403.000
Oscar 11 21 Jan 10:41:31 10:44:40 20° 295° (WNW) 10:47:48 145.826/435.025
BUGSAT 1 21 Jan 10:56:55 10:59:41 18° 65° (ENE) 11:02:27 437.445
Oscar 19 21 Jan 11:14:01 11:15:39 11° 55° (NE) 11:17:18 437.125/150
Cosmos 2491 21 Jan 11:16:43 11:21:33 15° 55° (NE) 11:26:23 435.465 / 435.565
ESTCUBE 1 21 Jan 11:16:50 11:20:51 30° 96° (E) 11:24:49 437.505/2401.250
PCSat 21 Jan 11:19:32 11:23:15 19° 254° (WSW) 11:26:57 145.827
QB50P1 21 Jan 11:23:45 11:27:56 72° 258° (WSW) 11:32:09 145.935-145.965
VELOX 1 21 Jan 11:25:13 11:27:18 13° 90° (E) 11:29:22 145.980
POLYITAN 1 21 Jan 11:28:18 11:32:27 63° 259° (WSW) 11:36:37 437.675
QB50P2 21 Jan 11:29:37 11:33:45 57° 260° (W) 11:37:54 145.880/145.840
Gurwin Techsat 1B 21 Jan 11:37:17 11:37:59 10° 54° (NE) 11:38:42 435.225
